Year,Month,Day,Hour,Minute,Value (Times are PST for windgust in km/hr)
2019,04,08,00,09,1.60
2019,04,08,00,10,1.60
2019,04,08,00,21,1.60
2019,04,08,00,22,1.60
2019,04,08,00,23,1.60
2019,04,08,00,24,3.20
2019,04,08,00,25,1.60
2019,04,08,00,26,1.60
2019,04,08,00,28,3.20
2019,04,08,00,29,3.20
2019,04,08,00,30,3.20
2019,04,08,00,31,4.80
2019,04,08,00,32,3.20
2019,04,08,00,33,1.60
2019,04,08,00,39,3.20
2019,04,08,00,40,3.20
2019,04,08,00,41,1.60
2019,04,08,00,44,1.60
2019,04,08,00,47,3.20
2019,04,08,00,48,3.20
2019,04,08,00,49,3.20
2019,04,08,00,51,1.60
2019,04,08,00,52,1.60
2019,04,08,00,55,3.20
2019,04,08,00,56,3.20
2019,04,08,00,57,3.20
2019,04,08,00,58,1.60
2019,04,08,01,00,3.20
2019,04,08,01,01,3.20
2019,04,08,01,02,1.60
2019,04,08,01,03,1.60
2019,04,08,01,04,3.20
2019,04,08,01,05,4.80
2019,04,08,01,06,4.80
2019,04,08,01,07,4.80
2019,04,08,01,08,4.80
2019,04,08,01,09,3.20
2019,04,08,01,14,1.60
2019,04,08,01,15,3.20
2019,04,08,01,16,1.60
2019,04,08,01,17,1.60
2019,04,08,01,30,3.20
2019,04,08,01,31,3.20
2019,04,08,01,32,3.20
2019,04,08,01,33,3.20
2019,04,08,01,37,1.60
2019,04,08,01,40,1.60
2019,04,08,01,41,3.20
2019,04,08,01,42,3.20
2019,04,08,01,43,3.20
2019,04,08,01,44,1.60
2019,04,08,01,45,1.60
2019,04,08,01,46,1.60
2019,04,08,01,47,1.60
2019,04,08,01,49,1.60
2019,04,08,01,50,3.20
2019,04,08,01,51,3.20
2019,04,08,01,52,3.20
2019,04,08,01,53,1.60
2019,04,08,01,55,1.60
2019,04,08,01,56,1.60
2019,04,08,02,00,3.20
2019,04,08,02,01,3.20
2019,04,08,02,02,3.20
2019,04,08,02,03,3.20
2019,04,08,02,04,3.20
2019,04,08,02,05,3.20
2019,04,08,02,06,3.20
2019,04,08,02,07,3.20
2019,04,08,02,08,1.60
2019,04,08,02,09,3.20
2019,04,08,02,10,3.20
2019,04,08,02,11,3.20
2019,04,08,02,12,3.20
2019,04,08,02,13,3.20
2019,04,08,02,14,3.20
2019,04,08,02,15,3.20
2019,04,08,02,16,4.80
2019,04,08,02,17,4.80
2019,04,08,02,18,4.80
2019,04,08,02,19,4.80
2019,04,08,02,20,3.20
2019,04,08,02,21,1.60
2019,04,08,02,22,1.60
2019,04,08,02,28,1.60
2019,04,08,02,29,3.20
2019,04,08,02,32,1.60
2019,04,08,02,33,3.20
2019,04,08,02,34,1.60
2019,04,08,02,37,1.60
2019,04,08,02,39,3.20
2019,04,08,02,40,3.20
2019,04,08,02,41,3.20
2019,04,08,02,42,1.60
2019,04,08,05,40,3.20
2019,04,08,05,41,4.80
2019,04,08,05,42,3.20
2019,04,08,05,43,4.80
2019,04,08,05,44,4.80
2019,04,08,05,56,1.60
2019,04,08,05,57,3.20
2019,04,08,05,58,1.60
2019,04,08,05,59,1.60
2019,04,08,06,01,1.60
2019,04,08,06,14,1.60
2019,04,08,06,19,1.60
2019,04,08,06,20,3.20
2019,04,08,06,21,1.60
2019,04,08,06,27,1.60
2019,04,08,06,28,1.60
2019,04,08,06,29,4.80
2019,04,08,06,30,3.20
2019,04,08,06,31,4.80
2019,04,08,06,32,3.20
2019,04,08,06,33,3.20
2019,04,08,06,34,1.60
2019,04,08,06,35,1.60
2019,04,08,06,36,1.60
2019,04,08,06,39,1.60
2019,04,08,07,15,1.60
2019,04,08,07,55,1.60
2019,04,08,07,57,4.80
2019,04,08,07,58,4.80
2019,04,08,07,59,4.80
2019,04,08,08,00,3.20
2019,04,08,08,01,3.20
2019,04,08,08,02,3.20
2019,04,08,08,03,8.10
2019,04,08,08,04,8.10
2019,04,08,08,05,6.40
2019,04,08,08,06,4.80
2019,04,08,08,07,6.40
2019,04,08,08,08,6.40
2019,04,08,08,09,6.40
2019,04,08,08,10,6.40
2019,04,08,08,11,6.40
2019,04,08,08,12,6.40
2019,04,08,08,13,6.40
2019,04,08,08,14,6.40
2019,04,08,08,15,6.40
2019,04,08,08,16,6.40
2019,04,08,08,17,4.80
2019,04,08,08,18,4.80
2019,04,08,08,19,6.40
2019,04,08,08,20,6.40
2019,04,08,08,21,4.80
2019,04,08,08,22,4.80
2019,04,08,08,23,4.80
2019,04,08,08,24,6.40
2019,04,08,08,25,8.10
2019,04,08,08,26,9.60
2019,04,08,08,27,6.40
2019,04,08,08,28,6.40
2019,04,08,08,29,6.40
2019,04,08,08,30,6.40
2019,04,08,08,31,6.40
2019,04,08,08,32,4.80
2019,04,08,08,33,3.20
2019,04,08,08,34,4.80
2019,04,08,08,35,4.80
2019,04,08,08,36,4.80
2019,04,08,08,37,3.20
2019,04,08,08,38,3.20
2019,04,08,08,39,3.20
2019,04,08,08,40,3.20
2019,04,08,08,44,1.60
2019,04,08,08,46,1.60
2019,04,08,08,47,1.60
2019,04,08,08,49,1.60
2019,04,08,08,50,3.20
2019,04,08,08,51,1.60
2019,04,08,08,52,4.80
2019,04,08,08,53,3.20
2019,04,08,08,54,1.60
2019,04,08,08,55,3.20
2019,04,08,08,56,1.60
2019,04,08,08,57,3.20
2019,04,08,08,58,3.20
2019,04,08,08,59,1.60
2019,04,08,09,00,1.60
2019,04,08,09,05,1.60
2019,04,08,09,06,3.20
2019,04,08,09,07,6.40
2019,04,08,09,08,6.40
2019,04,08,09,09,3.20
2019,04,08,09,10,1.60
2019,04,08,09,11,3.20
2019,04,08,09,12,6.40
2019,04,08,09,13,4.80
2019,04,08,09,14,4.80
2019,04,08,09,15,3.20
2019,04,08,09,16,3.20
2019,04,08,09,17,4.80
2019,04,08,09,18,3.20
2019,04,08,09,19,3.20
2019,04,08,09,20,3.20
2019,04,08,09,21,3.20
2019,04,08,09,22,3.20
2019,04,08,09,23,1.60
2019,04,08,09,24,3.20
2019,04,08,09,25,4.80
2019,04,08,09,26,3.20
2019,04,08,09,27,3.20
2019,04,08,09,28,1.60
2019,04,08,09,29,1.60
2019,04,08,09,30,3.20
2019,04,08,09,31,3.20
2019,04,08,09,32,4.80
2019,04,08,09,33,1.60
2019,04,08,09,34,4.80
2019,04,08,09,35,4.80
2019,04,08,09,36,4.80
2019,04,08,09,37,3.20
2019,04,08,09,38,4.80
2019,04,08,09,39,6.40
2019,04,08,09,40,4.80
2019,04,08,09,41,6.40
2019,04,08,09,42,4.80
2019,04,08,09,43,4.80
2019,04,08,09,44,3.20
2019,04,08,09,45,4.80
2019,04,08,09,46,1.60
2019,04,08,09,47,3.20
2019,04,08,09,48,3.20
2019,04,08,09,49,6.40
2019,04,08,09,50,4.80
2019,04,08,09,51,8.10
2019,04,08,09,52,3.20
2019,04,08,09,53,8.10
2019,04,08,09,54,9.60
2019,04,08,09,55,9.60
2019,04,08,09,56,8.10
2019,04,08,09,57,9.60
2019,04,08,09,58,9.60
2019,04,08,09,59,9.60
2019,04,08,10,00,9.60
2019,04,08,10,01,9.60
2019,04,08,10,02,9.60
2019,04,08,10,03,6.40
2019,04,08,10,04,8.10
2019,04,08,10,05,9.60
2019,04,08,10,06,8.10
2019,04,08,10,07,11.30
2019,04,08,10,08,11.30
2019,04,08,10,09,9.60
2019,04,08,10,10,9.60
2019,04,08,10,11,9.60
2019,04,08,10,12,9.60
2019,04,08,10,13,9.60
2019,04,08,10,14,8.10
2019,04,08,10,15,6.40
2019,04,08,10,16,6.40
2019,04,08,10,17,8.10
2019,04,08,10,18,8.10
2019,04,08,10,19,8.10
2019,04,08,10,20,8.10
2019,04,08,10,21,8.10
2019,04,08,10,22,6.40
2019,04,08,10,23,4.80
2019,04,08,10,24,1.60
2019,04,08,10,26,3.20
2019,04,08,10,27,3.20
2019,04,08,10,28,4.80
2019,04,08,10,29,4.80
2019,04,08,10,30,4.80
2019,04,08,10,31,4.80
2019,04,08,10,32,4.80
2019,04,08,10,33,4.80
2019,04,08,10,34,6.40
2019,04,08,10,35,6.40
2019,04,08,10,36,4.80
2019,04,08,10,37,3.20
2019,04,08,10,38,4.80
2019,04,08,10,39,6.40
2019,04,08,10,40,1.60
2019,04,08,10,59,6.40
2019,04,08,11,00,11.30
2019,04,08,11,01,12.90
2019,04,08,11,02,9.60
2019,04,08,11,03,11.30
2019,04,08,11,04,9.60
2019,04,08,11,05,11.30
2019,04,08,11,06,9.60
2019,04,08,11,07,8.10
2019,04,08,11,08,6.40
2019,04,08,11,09,3.20
2019,04,08,11,10,3.20
2019,04,08,11,11,3.20
2019,04,08,11,12,1.60
2019,04,08,11,13,1.60
2019,04,08,11,14,3.20
2019,04,08,11,15,3.20
2019,04,08,11,16,3.20
2019,04,08,11,17,3.20
2019,04,08,11,18,1.60
2019,04,08,11,19,1.60
2019,04,08,11,20,1.60
2019,04,08,11,21,3.20
2019,04,08,11,22,1.60
2019,04,08,11,23,1.60
2019,04,08,11,27,1.60
2019,04,08,11,28,3.20
2019,04,08,11,29,8.10
2019,04,08,11,30,6.40
2019,04,08,11,31,3.20
2019,04,08,11,33,6.40
2019,04,08,11,34,3.20
2019,04,08,11,35,1.60
2019,04,08,11,36,1.60
2019,04,08,11,37,6.40
2019,04,08,11,38,1.60
2019,04,08,11,39,6.40
2019,04,08,11,40,3.20
2019,04,08,11,41,4.80
2019,04,08,11,42,4.80
2019,04,08,11,43,1.60
2019,04,08,11,45,1.60
2019,04,08,11,46,1.60
2019,04,08,11,47,1.60
2019,04,08,11,48,3.20
2019,04,08,11,49,1.60
2019,04,08,11,52,1.60
2019,04,08,11,53,3.20
2019,04,08,11,54,3.20
2019,04,08,11,55,1.60
2019,04,08,11,56,1.60
2019,04,08,11,59,3.20
2019,04,08,12,00,3.20
2019,04,08,12,01,3.20
2019,04,08,12,03,3.20
2019,04,08,12,04,4.80
2019,04,08,12,05,6.40
2019,04,08,12,06,4.80
2019,04,08,12,07,1.60
2019,04,08,12,08,4.80
2019,04,08,12,09,8.10
2019,04,08,12,10,1.60
2019,04,08,12,12,3.20
2019,04,08,12,13,1.60
2019,04,08,12,14,6.40
2019,04,08,12,15,6.40
2019,04,08,12,16,1.60
2019,04,08,12,17,1.60
2019,04,08,12,18,6.40
2019,04,08,12,19,6.40
2019,04,08,12,20,6.40
2019,04,08,12,21,6.40
2019,04,08,12,22,9.60
2019,04,08,12,23,8.10
2019,04,08,12,24,6.40
2019,04,08,12,25,6.40
2019,04,08,12,26,6.40
2019,04,08,12,27,8.10
2019,04,08,12,28,6.40
2019,04,08,12,29,6.40
2019,04,08,12,30,3.20
2019,04,08,12,31,3.20
2019,04,08,12,32,4.80
2019,04,08,12,33,4.80
2019,04,08,12,34,6.40
2019,04,08,12,35,6.40
2019,04,08,12,36,6.40
2019,04,08,12,37,4.80
2019,04,08,12,38,4.80
2019,04,08,12,39,4.80
2019,04,08,12,40,3.20
2019,04,08,12,41,4.80
2019,04,08,12,42,4.80
2019,04,08,12,43,3.20
2019,04,08,12,44,4.80
2019,04,08,12,45,6.40
2019,04,08,12,46,6.40
2019,04,08,12,47,8.10
2019,04,08,12,48,6.40
2019,04,08,12,49,6.40
2019,04,08,12,50,3.20
2019,04,08,12,51,6.40
2019,04,08,12,52,6.40
2019,04,08,12,53,3.20
2019,04,08,12,54,3.20
2019,04,08,12,55,8.10
2019,04,08,12,56,3.20
2019,04,08,12,57,3.20
2019,04,08,12,58,6.40
2019,04,08,12,59,4.80
2019,04,08,13,00,3.20
2019,04,08,13,01,4.80
2019,04,08,13,02,3.20
2019,04,08,13,03,4.80
2019,04,08,13,04,3.20
2019,04,08,13,05,3.20
2019,04,08,13,06,6.40
2019,04,08,13,07,4.80
2019,04,08,13,08,4.80
2019,04,08,13,09,4.80
2019,04,08,13,10,8.10
2019,04,08,13,11,8.10
2019,04,08,13,12,8.10
2019,04,08,13,13,6.40
2019,04,08,13,14,9.60
2019,04,08,13,15,6.40
2019,04,08,13,16,3.20
2019,04,08,13,17,8.10
2019,04,08,13,18,3.20
2019,04,08,13,19,4.80
2019,04,08,13,20,3.20
2019,04,08,13,21,3.20
2019,04,08,13,22,6.40
2019,04,08,13,23,8.10
2019,04,08,13,24,4.80
2019,04,08,13,25,6.40
2019,04,08,13,26,4.80
2019,04,08,13,27,6.40
2019,04,08,13,28,6.40
2019,04,08,13,29,8.10
2019,04,08,13,30,6.40
2019,04,08,13,31,8.10
2019,04,08,13,32,6.40
2019,04,08,13,33,8.10
2019,04,08,13,34,6.40
2019,04,08,13,35,6.40
2019,04,08,13,36,8.10
2019,04,08,13,37,4.80
2019,04,08,13,38,3.20
2019,04,08,13,39,8.10
2019,04,08,13,40,3.20
2019,04,08,13,41,6.40
2019,04,08,13,42,8.10
2019,04,08,13,43,4.80
2019,04,08,13,44,4.80
2019,04,08,13,45,4.80
2019,04,08,13,46,6.40
2019,04,08,13,47,6.40
2019,04,08,13,48,8.10
2019,04,08,13,49,6.40
2019,04,08,13,50,4.80
2019,04,08,13,51,6.40
2019,04,08,13,52,8.10
2019,04,08,13,53,8.10
2019,04,08,13,54,8.10
2019,04,08,13,55,6.40
2019,04,08,13,56,4.80
2019,04,08,13,57,3.20
2019,04,08,13,58,4.80
2019,04,08,13,59,3.20
2019,04,08,14,00,3.20
2019,04,08,14,01,3.20
2019,04,08,14,02,8.10
2019,04,08,14,03,3.20
2019,04,08,14,04,6.40
2019,04,08,14,05,6.40
2019,04,08,14,06,3.20
2019,04,08,14,07,3.20
2019,04,08,14,08,4.80
2019,04,08,14,09,4.80
2019,04,08,14,10,3.20
2019,04,08,14,11,6.40
2019,04,08,14,12,8.10
2019,04,08,14,13,6.40
2019,04,08,14,14,6.40
2019,04,08,14,15,8.10
2019,04,08,14,16,6.40
2019,04,08,14,17,6.40
2019,04,08,14,18,8.10
2019,04,08,14,19,4.80
2019,04,08,14,20,4.80
2019,04,08,14,21,8.10
2019,04,08,14,22,8.10
2019,04,08,14,23,6.40
2019,04,08,14,24,6.40
2019,04,08,14,25,4.80
2019,04,08,14,26,9.60
2019,04,08,14,27,4.80
2019,04,08,14,28,6.40
2019,04,08,14,29,8.10
2019,04,08,14,30,4.80
2019,04,08,14,31,6.40
2019,04,08,14,32,4.80
2019,04,08,14,33,3.20
2019,04,08,14,34,1.60
2019,04,08,14,35,4.80
2019,04,08,14,36,6.40
2019,04,08,14,37,3.20
2019,04,08,14,38,4.80
2019,04,08,14,39,6.40
2019,04,08,14,40,8.10
2019,04,08,14,41,8.10
2019,04,08,14,42,4.80
2019,04,08,14,43,8.10
2019,04,08,14,44,8.10
2019,04,08,14,45,4.80
2019,04,08,14,46,4.80
2019,04,08,14,47,3.20
2019,04,08,14,48,3.20
2019,04,08,14,49,3.20
2019,04,08,14,50,3.20
2019,04,08,14,51,4.80
2019,04,08,14,52,6.40
2019,04,08,14,53,6.40
2019,04,08,14,54,6.40
2019,04,08,14,55,3.20
2019,04,08,14,56,3.20
2019,04,08,14,57,6.40
2019,04,08,14,58,6.40
2019,04,08,14,59,6.40
2019,04,08,15,00,4.80
2019,04,08,15,01,4.80
2019,04,08,15,02,4.80
2019,04,08,15,03,3.20
2019,04,08,15,04,3.20
2019,04,08,15,05,1.60
2019,04,08,15,06,1.60
2019,04,08,15,07,3.20
2019,04,08,15,08,1.60
2019,04,08,15,09,1.60
2019,04,08,15,10,3.20
2019,04,08,15,11,1.60
2019,04,08,15,12,1.60
2019,04,08,15,13,3.20
2019,04,08,15,14,3.20
2019,04,08,15,15,4.80
2019,04,08,15,16,4.80
2019,04,08,15,17,4.80
2019,04,08,15,18,3.20
2019,04,08,15,19,1.60
2019,04,08,15,20,1.60
2019,04,08,15,21,3.20
2019,04,08,15,22,1.60
2019,04,08,15,24,1.60
2019,04,08,15,25,3.20
2019,04,08,15,26,1.60
2019,04,08,15,27,1.60
2019,04,08,15,28,3.20
2019,04,08,15,29,1.60
2019,04,08,15,30,3.20
2019,04,08,15,31,1.60
2019,04,08,15,37,3.20
2019,04,08,15,38,3.20
2019,04,08,15,39,3.20
2019,04,08,15,40,3.20
2019,04,08,15,41,3.20
2019,04,08,15,42,3.20
2019,04,08,15,43,3.20
2019,04,08,15,44,3.20
2019,04,08,15,45,3.20
2019,04,08,15,46,6.40
2019,04,08,15,47,4.80
2019,04,08,15,48,3.20
2019,04,08,15,49,3.20
2019,04,08,15,50,4.80
2019,04,08,15,51,4.80
2019,04,08,15,52,3.20
2019,04,08,15,53,3.20
2019,04,08,15,54,3.20
2019,04,08,15,55,3.20
2019,04,08,15,56,4.80
2019,04,08,15,57,3.20
2019,04,08,15,58,3.20
2019,04,08,15,59,1.60
2019,04,08,16,00,3.20
2019,04,08,16,01,3.20
2019,04,08,16,02,4.80
2019,04,08,16,03,4.80
2019,04,08,16,04,4.80
2019,04,08,16,05,1.60
2019,04,08,16,06,4.80
2019,04,08,16,07,4.80
2019,04,08,16,08,3.20
2019,04,08,16,09,1.60
2019,04,08,16,10,1.60
2019,04,08,16,11,4.80
2019,04,08,16,12,6.40
2019,04,08,16,13,4.80
2019,04,08,16,14,3.20
2019,04,08,16,15,3.20
2019,04,08,16,16,1.60
2019,04,08,16,18,1.60
2019,04,08,16,38,1.60
2019,04,08,16,39,3.20
2019,04,08,16,40,3.20
2019,04,08,16,41,3.20
2019,04,08,16,43,3.20
2019,04,08,16,44,3.20
2019,04,08,16,45,3.20
2019,04,08,16,46,3.20
2019,04,08,16,47,3.20
2019,04,08,16,48,1.60
2019,04,08,16,49,1.60
2019,04,08,16,50,3.20
2019,04,08,16,51,4.80
2019,04,08,16,52,1.60
2019,04,08,17,14,1.60
2019,04,08,17,15,3.20
2019,04,08,17,16,1.60
2019,04,08,17,23,1.60
2019,04,08,17,24,1.60
2019,04,08,17,28,1.60
2019,04,08,17,29,1.60
2019,04,08,17,30,1.60
2019,04,08,17,31,1.60
2019,04,08,17,32,1.60
2019,04,08,17,33,1.60
2019,04,08,17,34,1.60
2019,04,08,17,35,1.60
2019,04,08,17,36,1.60
2019,04,08,17,37,1.60
2019,04,08,17,44,1.60
2019,04,08,17,46,1.60
2019,04,08,17,47,1.60
2019,04,08,17,48,1.60
2019,04,08,17,49,1.60
2019,04,08,17,50,1.60
2019,04,08,17,51,3.20
2019,04,08,17,59,1.60
2019,04,08,18,11,3.20
2019,04,08,18,12,1.60
2019,04,08,18,13,4.80
2019,04,08,18,14,1.60
2019,04,08,18,15,3.20
2019,04,08,18,16,4.80
2019,04,08,18,17,3.20
2019,04,08,18,18,3.20
2019,04,08,18,19,6.40
2019,04,08,18,20,9.60
2019,04,08,18,21,6.40
2019,04,08,18,22,8.10
2019,04,08,18,23,9.60
2019,04,08,18,24,9.60
2019,04,08,18,25,8.10
2019,04,08,18,26,8.10
2019,04,08,18,27,6.40
2019,04,08,18,28,6.40
2019,04,08,18,29,9.60
2019,04,08,18,30,6.40
2019,04,08,18,31,8.10
2019,04,08,18,32,11.30
2019,04,08,18,33,9.60
2019,04,08,18,34,8.10
2019,04,08,18,35,9.60
2019,04,08,18,36,9.60
2019,04,08,18,37,12.90
2019,04,08,18,38,6.40
2019,04,08,18,39,6.40
2019,04,08,18,40,9.60
2019,04,08,18,41,9.60
2019,04,08,18,42,8.10
2019,04,08,18,43,9.60
2019,04,08,18,44,11.30
2019,04,08,18,45,9.60
2019,04,08,18,46,11.30
2019,04,08,18,47,11.30
2019,04,08,18,48,8.10
2019,04,08,18,49,9.60
2019,04,08,18,50,8.10
2019,04,08,18,51,8.10
2019,04,08,18,52,9.60
2019,04,08,18,53,6.40
2019,04,08,18,54,9.60
2019,04,08,18,55,8.10
2019,04,08,18,56,12.90
2019,04,08,18,57,6.40
2019,04,08,18,58,6.40
2019,04,08,18,59,6.40
2019,04,08,19,00,8.10
2019,04,08,19,01,8.10
2019,04,08,19,02,9.60
2019,04,08,19,03,6.40
2019,04,08,19,04,9.60
2019,04,08,19,05,8.10
2019,04,08,19,06,9.60
2019,04,08,19,07,9.60
2019,04,08,19,08,8.10
2019,04,08,19,09,6.40
2019,04,08,19,10,3.20
2019,04,08,19,11,6.40
2019,04,08,19,12,6.40
2019,04,08,19,13,8.10
2019,04,08,19,14,8.10
2019,04,08,19,15,1.60
2019,04,08,19,16,6.40
2019,04,08,19,17,8.10
2019,04,08,19,18,8.10
2019,04,08,19,19,9.60
2019,04,08,19,20,4.80
2019,04,08,19,21,9.60
2019,04,08,19,22,9.60
2019,04,08,19,23,8.10
2019,04,08,19,24,11.30
2019,04,08,19,25,9.60
2019,04,08,19,26,9.60
2019,04,08,19,27,11.30
2019,04,08,19,28,12.90
2019,04,08,19,29,8.10
2019,04,08,19,30,11.30
2019,04,08,19,31,14.50
2019,04,08,19,32,9.60
2019,04,08,19,33,11.30
2019,04,08,19,34,8.10
2019,04,08,19,35,6.40
2019,04,08,19,36,9.60
2019,04,08,19,37,8.10
2019,04,08,19,38,12.90
2019,04,08,19,39,8.10
2019,04,08,19,40,8.10
2019,04,08,19,41,8.10
2019,04,08,19,42,8.10
2019,04,08,19,43,6.40
2019,04,08,19,44,6.40
2019,04,08,19,45,9.60
2019,04,08,19,46,11.30
2019,04,08,19,47,11.30
2019,04,08,19,48,11.30
2019,04,08,19,49,8.10
2019,04,08,19,50,9.60
2019,04,08,19,51,8.10
2019,04,08,19,52,8.10
2019,04,08,19,53,8.10
2019,04,08,19,54,9.60
2019,04,08,19,55,9.60
2019,04,08,19,56,8.10
2019,04,08,19,57,9.60
2019,04,08,19,58,9.60
2019,04,08,19,59,12.90
2019,04,08,20,00,12.90
2019,04,08,20,01,12.90
2019,04,08,20,02,9.60
2019,04,08,20,03,8.10
2019,04,08,20,04,9.60
2019,04,08,20,05,9.60
2019,04,08,20,06,9.60
2019,04,08,20,07,9.60
2019,04,08,20,08,12.90
2019,04,08,20,09,11.30
2019,04,08,20,10,8.10
2019,04,08,20,11,9.60
2019,04,08,20,12,11.30
2019,04,08,20,13,9.60
2019,04,08,20,14,9.60
2019,04,08,20,15,9.60
2019,04,08,20,16,8.10
2019,04,08,20,17,8.10
2019,04,08,20,18,6.40
2019,04,08,20,19,4.80
2019,04,08,20,20,8.10
2019,04,08,20,21,6.40
2019,04,08,20,22,12.90
2019,04,08,20,23,11.30
2019,04,08,20,24,9.60
2019,04,08,20,25,12.90
2019,04,08,20,26,6.40
2019,04,08,20,27,8.10
2019,04,08,20,28,6.40
2019,04,08,20,29,6.40
2019,04,08,20,30,9.60
2019,04,08,20,31,8.10
2019,04,08,20,32,11.30
2019,04,08,20,33,9.60
2019,04,08,20,34,9.60
2019,04,08,20,35,9.60
2019,04,08,20,36,8.10
2019,04,08,20,37,9.60
2019,04,08,20,38,8.10
2019,04,08,20,39,9.60
2019,04,08,20,40,8.10
2019,04,08,20,41,6.40
2019,04,08,20,42,8.10
2019,04,08,20,43,9.60
2019,04,08,20,44,6.40
2019,04,08,20,45,9.60
2019,04,08,20,46,6.40
2019,04,08,20,47,6.40
2019,04,08,20,48,6.40
2019,04,08,20,49,6.40
2019,04,08,20,50,6.40
2019,04,08,20,51,6.40
2019,04,08,20,52,6.40
2019,04,08,20,53,4.80
2019,04,08,20,54,6.40
2019,04,08,20,55,6.40
2019,04,08,20,56,4.80
2019,04,08,20,57,4.80
2019,04,08,20,58,3.20
2019,04,08,20,59,4.80
2019,04,08,21,00,4.80
2019,04,08,21,01,6.40
2019,04,08,21,02,3.20
2019,04,08,21,03,4.80
2019,04,08,21,04,6.40
2019,04,08,21,05,4.80
2019,04,08,21,06,3.20
2019,04,08,21,07,4.80
2019,04,08,21,08,4.80
2019,04,08,21,09,4.80
2019,04,08,21,10,3.20
2019,04,08,21,11,4.80
2019,04,08,21,12,3.20
2019,04,08,21,13,3.20
2019,04,08,21,14,3.20
2019,04,08,21,15,4.80
2019,04,08,21,16,3.20
2019,04,08,21,17,3.20
2019,04,08,21,18,4.80
2019,04,08,21,19,3.20
2019,04,08,21,20,3.20
2019,04,08,21,21,4.80
2019,04,08,21,22,3.20
2019,04,08,21,23,4.80
2019,04,08,21,24,8.10
2019,04,08,21,25,6.40
2019,04,08,21,26,4.80
2019,04,08,21,27,6.40
2019,04,08,21,28,3.20
2019,04,08,21,29,6.40
2019,04,08,21,30,3.20
2019,04,08,21,31,4.80
2019,04,08,21,32,3.20
2019,04,08,21,33,4.80
2019,04,08,21,34,4.80
2019,04,08,21,35,4.80
2019,04,08,21,36,3.20
2019,04,08,21,37,3.20
2019,04,08,21,38,6.40
2019,04,08,21,39,6.40
2019,04,08,21,40,4.80
2019,04,08,21,41,4.80
2019,04,08,21,42,6.40
2019,04,08,21,43,6.40
2019,04,08,21,44,6.40
2019,04,08,21,45,6.40
2019,04,08,21,46,4.80
2019,04,08,21,47,4.80
2019,04,08,21,48,4.80
2019,04,08,21,49,3.20
2019,04,08,21,50,3.20
2019,04,08,21,51,6.40
2019,04,08,21,52,4.80
2019,04,08,21,53,3.20
2019,04,08,21,54,3.20
2019,04,08,21,55,3.20
2019,04,08,21,56,4.80
2019,04,08,21,57,3.20
2019,04,08,21,58,3.20
2019,04,08,21,59,4.80
2019,04,08,22,00,1.60
2019,04,08,22,03,1.60
2019,04,08,22,04,1.60
2019,04,08,22,10,1.60
2019,04,08,22,11,1.60
2019,04,08,22,12,3.20
2019,04,08,22,16,1.60
2019,04,08,22,23,3.20
2019,04,08,22,24,1.60
2019,04,08,22,25,1.60
2019,04,08,22,26,3.20
2019,04,08,22,27,1.60
2019,04,08,22,28,3.20
2019,04,08,22,29,4.80
2019,04,08,22,30,4.80
2019,04,08,22,31,3.20
2019,04,08,22,32,3.20
2019,04,08,22,33,4.80
2019,04,08,22,34,4.80
2019,04,08,22,35,3.20
2019,04,08,22,36,8.10
2019,04,08,22,37,3.20
2019,04,08,22,38,6.40
2019,04,08,22,39,6.40
2019,04,08,22,40,3.20
2019,04,08,22,41,8.10
2019,04,08,22,42,6.40
2019,04,08,22,43,1.60
2019,04,08,22,44,3.20
2019,04,08,22,45,3.20
2019,04,08,22,46,1.60
2019,04,08,22,47,3.20
2019,04,08,22,48,1.60
2019,04,08,22,51,3.20
2019,04,08,22,52,3.20
2019,04,08,22,53,1.60
2019,04,08,23,03,1.60
2019,04,08,23,04,1.60
2019,04,08,23,05,1.60
2019,04,08,23,06,1.60
2019,04,08,23,07,1.60
2019,04,08,23,14,1.60
2019,04,08,23,15,1.60
2019,04,08,23,16,3.20
2019,04,08,23,17,6.40
2019,04,08,23,18,3.20
2019,04,08,23,28,1.60
2019,04,08,23,29,1.60
2019,04,08,23,30,1.60
2019,04,08,23,36,3.20
2019,04,08,23,37,1.60
2019,04,08,23,38,1.60
2019,04,08,23,44,1.60
2019,04,08,23,48,1.60
2019,04,08,23,49,1.60
2019,04,08,23,53,1.60
2019,04,08,23,54,3.20
2019,04,08,23,55,1.60
2019,04,08,23,56,3.20
2019,04,08,23,57,3.20
2019,04,08,23,58,6.40
2019,04,08,23,59,8.10
